This is the latest recevied weather packets stored in our database for station/object WX5KDM. If no packets are shown the sender has not sent any weather packets the latest 10 day(s).
| Time | Temp. | Humidity | Pressure | Rain* | Wind** | Luminosity | Snow |
|---|---|---|---|---|---|---|---|
| 1777573845 | 18.89° C | 49% | 1016.6 hPa | 0 mm | - | - | - |
| 1777573540 | 18.33° C | 52% | 1016.3 hPa | 0 mm | - | - | - |
| 1777573237 | 18.33° C | 50% | 1016.5 hPa | 0 mm | - | - | - |
| 1777572933 | 18.33° C | 50% | 1016.7 hPa | 0 mm | - | - | - |
| 1777572629 | 18.33° C | 49% | 1016.9 hPa | 0 mm | - | - | - |
| 1777572324 | 18.89° C | 49% | 1016.6 hPa | 0 mm | - | - | - |
| 1777572021 | 18.89° C | 54% | 1016.6 hPa | 0 mm | - | - | - |
| 1777571720 | 18.33° C | 52% | 1016.5 hPa | 0 mm | - | - | - |
| 1777571418 | 18.33° C | 52% | 1016.7 hPa | 0 mm | - | - | - |
| 1777571114 | 18.33° C | 55% | 1016.8 hPa | 0 mm | - | - | - |
| 1777570810 | 18.89° C | 53% | 1016.7 hPa | 0 mm | - | - | - |
| 1777570506 | 18.33° C | 54% | 1017.1 hPa | 0 mm | - | - | - |
| 1777570203 | 17.78° C | 55% | 1016.9 hPa | 0 mm | - | - | - |
| 1777569898 | 18.33° C | 55% | 1016.8 hPa | 0 mm | - | - | - |
| 1777569595 | 17.78° C | 52% | 1016.6 hPa | 0 mm | - | - | - |
| 1777569291 | 18.33° C | 53% | 1016.9 hPa | 0 mm | - | - | - |
| 1777568988 | 18.33° C | 53% | 1016.7 hPa | 0 mm | - | - | - |
| 1777568684 | 18.33° C | 55% | 1016.9 hPa | 0 mm | - | - | - |
| 1777568382 | 18.89° C | 51% | 1016.9 hPa | 0 mm | - | - | - |
| 1777568078 | 18.33° C | 55% | 1016.9 hPa | 0 mm | - | - | - |
| 1777567774 | 17.78° C | 56% | 1017.2 hPa | 0 mm | - | - | - |
| 1777567471 | 18.33° C | 54% | 1017.2 hPa | 0 mm | - | - | - |
| 1777567169 | 17.78° C | 54% | 1017 hPa | 0 mm | - | - | - |
| 1777566867 | 18.33° C | 55% | 1017.1 hPa | 0 mm | - | - | - |
| 1777566565 | 17.78° C | 57% | 1017.1 hPa | 0 mm | - | - | - |
* Rain latest hour (hover to see other rain measurements)
** Current wind speed in m/s (hover to see current wind gust speed)